Hourly Data Report for June 09, 2012

All times are specified in Local Standard Time (LST). Add 1 hour to adjust for Daylight Saving Time where and when it is observed.

SAINT JOHN A
NEW BRUNSWICK

45°18'58.000" N
65°53'24.000" W
108.80 m
8104901
71609
YSJ

Download Data

Hourly Data (June 2012)
Hourly Data Report for June 9, 2012
Temp Definition
°C
Dew Point Temp Definition
°C
Rel Hum Definition
%
Wind Dir Definition
10's deg

Wind Spd Definition
km/h
Visibility Definition
km
Stn Press Definition
kPa
Hmdx Definition


Wind Chill Definition


Weather Definition


TIME
00:00 Legend Double Dagger 8.9 8.9 100 21 20 0.8 99.61     Fog
01:00 Legend Double Dagger 8.9 8.9 100 21 23 0.6 99.59     Fog
02:00 Legend Double Dagger 8.9 8.9 100 19 15 0.8 99.51     Fog
03:00 Legend Double Dagger 9.4 9.4 100 19 17 0.8 99.50     Fog
04:00 Legend Double Dagger 9.6 9.6 100 19 10 1.0 99.47     Fog
05:00 Legend Double Dagger 9.3 9.3 100 18 8 1.2 99.46     Rain,Fog
06:00 Legend Double Dagger 9.1 9.1 100 14 4 1.2 99.44     Rain,Fog
07:00 Legend Double Dagger 9.5 9.4 99 15 6 3.2 99.46     Rain,Fog
08:00 Legend Double Dagger 9.9 9.8 99 19 8 4.8 99.45     Rain,Fog
09:00 Legend Double Dagger 10.4 10.3 99 19 6 3.2 99.45     Fog
10:00 Legend Double Dagger 10.7 10.4 98 22 5 1.6 99.45     Fog
11:00 Legend Double Dagger 12.2 11.4 95   0 4.8 99.46     Fog
12:00 Legend Double Dagger 15.1 11.9 81 31 8 10.0 99.45     LegendNANA
13:00 Legend Double Dagger 15.2 12.6 84 15 12 10.0 99.43     LegendNANA
14:00 Legend Double Dagger 13.8 13.0 95 22 15 6.4 99.46     Rain Showers
15:00 Legend Double Dagger 15.4 13.3 87 20 9 10.0 99.43     LegendNANA
16:00 Legend Double Dagger 14.5 13.2 92 25 8 10.0 99.44     LegendNANA
17:00 Legend Double Dagger 15.3 13.5 89 27 15 10.0 99.51     Mostly Cloudy
18:00 Legend Double Dagger 15.0 13.2 89 27 11 10.0 99.49     LegendNANA
19:00 Legend Double Dagger 14.1 12.7 91 24 9 10.0 99.52     LegendNANA
20:00 Legend Double Dagger 13.6 12.5 93 27 10 10.0 99.57     Mostly Cloudy
21:00 Legend Double Dagger 13.5 12.7 95 27 9 10.0 99.60     LegendNANA
22:00 Legend Double Dagger 13.3 11.7 90 32 17 10.0 99.63     LegendNANA
23:00 Legend Double Dagger 13.1 11.2 88 32 18 10.0 99.69     Mostly Cloudy

Notes on Data Quality.

Legend

  • E = Estimated
  • M = Missing
  • NA = Not Available
  • ‡ = Partner data that is not subject to review by the National Climate Archives
Date modified: